| time (UTC) | temp C | wind direction | speed KPH | gust KPH | rain 1hr cm | rain 24hr cm | rain mn cm | humidity % | barometer mb |
| 20260506034552 | 16 | 24 | 11.3 | 22.5 | 0.00 | 0.91 | 0.91 | 59 | 1015.4 |
| 20260506033056 | 16 | 128 | 6.4 | 11.3 | 0.00 | 0.91 | 0.91 | 64 | 1013.3 |
| 20260506031552 | 17 | 105 | 4.8 | 12.9 | 0.00 | 0.91 | 0.91 | 59 | 1013.1 |
| 20260506030057 | 17 | 128 | 4.8 | 11.3 | 0.00 | 0.91 | 0.91 | 56 | 1012.9 |
| 20260506024559 | 17 | 130 | 1.6 | 8.0 | 0.00 | 0.91 | 0.91 | 54 | 1012.5 |
| 20260506023044 | 18 | 119 | 4.8 | 11.3 | 0.00 | 0.91 | 0.91 | 51 | 1012.5 |
| 20260506021551 | 18 | 146 | 6.4 | 16.1 | 0.00 | 0.91 | 0.91 | 49 | 1012.5 |
| 20260506020047 | 18 | 180 | 9.7 | 17.7 | 0.00 | 0.91 | 0.91 | 48 | 1012.5 |
| 20260506014545 | 18 | 167 | 6.4 | 14.5 | 0.00 | 0.91 | 0.91 | 50 | 1012.4 |
| 20260506013048 | 19 | 161 | 9.7 | 20.9 | 0.00 | 0.91 | 0.91 | 49 | 1012.3 |
| 20260506011607 | 19 | 137 | 6.4 | 19.3 | 0.00 | 0.91 | 0.91 | 49 | 1012.3 |
| 20260506010048 | 20 | 138 | 6.4 | 17.7 | 0.00 | 0.91 | 0.91 | 49 | 1012.2 |
| 20260506004547 | 20 | 184 | 8.0 | 16.1 | 0.00 | 0.91 | 0.91 | 50 | 1012.3 |
| 20260506003051 | 20 | 184 | 9.7 | 22.5 | 0.00 | 0.91 | 0.91 | 49 | 1012.3 |
| 20260506001550 | 20 | 120 | 3.2 | 17.7 | 0.00 | 0.91 | 0.91 | 43 | 1012.3 |
| 20260506000051 | 20 | 96 | 4.8 | 16.1 | 0.00 | 0.91 | 0.91 | 49 | 1012.4 |
| 20260505234539 | 20 | 168 | 11.3 | 22.5 | 0.00 | 0.91 | 0.91 | 44 | 1012.5 |
| 20260505233046 | 20 | 105 | 4.8 | 11.3 | 0.00 | 0.91 | 0.91 | 49 | 1012.6 |
| 20260505231545 | 19 | 98 | 4.8 | 12.9 | 0.00 | 0.91 | 0.91 | 50 | 1012.8 |
| 20260505230044 | 18 | 62 | 4.8 | 12.9 | 0.00 | 0.91 | 0.91 | 50 | 1012.8 |
| 20260505224540 | 18 | 92 | 4.8 | 12.9 | 0.00 | 0.91 | 0.91 | 53 | 1013.1 |
| 20260505223048 | 18 | 97 | 9.7 | 19.3 | 0.00 | 0.91 | 0.91 | 53 | 1013.3 |
| 20260505221600 | 18 | 143 | 4.8 | 12.9 | 0.00 | 0.91 | 0.91 | 54 | 1013.5 |
| 20260505220056 | 18 | 141 | 3.2 | 16.1 | 0.00 | 0.91 | 0.91 | 56 | 1013.6 |
| 20260505214548 | 18 | 190 | 4.8 | 16.1 | 0.00 | 0.91 | 0.91 | 58 | 1013.7 |
| 20260505213040 | 17 | 198 | 11.3 | 20.9 | 0.00 | 0.91 | 0.91 | 56 | 1013.7 |
| 20260505211544 | 17 | 324 | 6.4 | 22.5 | 0.00 | 0.91 | 0.91 | 58 | 1014.0 |
| 20260505210051 | 17 | 182 | 11.3 | 17.7 | 0.00 | 0.91 | 0.91 | 62 | 1014.1 |
| 20260505204554 | 16 | 181 | 9.7 | 17.7 | 0.00 | 0.91 | 0.91 | 65 | 1014.3 |
| 20260505203041 | 16 | 198 | 8.0 | 19.3 | 0.00 | 0.91 | 0.91 | 65 | 1014.5 |
| 20260505201551 | 15 | 160 | 6.4 | 16.1 | 0.00 | 0.91 | 0.91 | 62 | 1014.4 |
| 20260505200048 | 15 | 117 | 0.0 | 12.9 | 0.00 | 0.91 | 0.91 | 68 | 1014.6 |
| 20260505194559 | 15 | 210 | 0.0 | 11.3 | 0.00 | 0.91 | 0.91 | 65 | 1014.7 |
| 20260505193046 | 15 | 234 | 4.8 | 12.9 | 0.00 | 0.91 | 0.91 | 67 | 1014.7 |
| 20260505191548 | 14 | 268 | 4.8 | 11.3 | 0.00 | 0.91 | 0.91 | 70 | 1014.7 |
| 20260505190043 | 13 | 211 | 6.4 | 11.3 | 0.00 | 0.91 | 0.91 | 74 | 1014.7 |
| 20260505184539 | 13 | 147 | 3.2 | 12.9 | 0.00 | 0.91 | 0.91 | 78 | 1014.6 |
| 20260505183052 | 13 | 89 | 0.0 | 14.5 | 0.00 | 0.91 | 0.91 | 81 | 1014.7 |
| 20260505181544 | 12 | 115 | 0.0 | 11.3 | 0.00 | 0.91 | 0.91 | 83 | 1014.6 |
| 20260505180048 | 12 | 153 | 6.4 | 9.7 | 0.00 | 0.91 | 0.91 | 80 | 1014.5 |
| 20260505174542 | 11 | 147 | 4.8 | 11.3 | 0.00 | 0.91 | 0.91 | 89 | 1014.3 |
| 20260505173048 | 11 | 141 | 4.8 | 8.0 | 0.00 | 0.91 | 0.91 | 91 | 1014.2 |
| 20260505171551 | 10 | 158 | 3.2 | 11.3 | 0.00 | 0.91 | 0.91 | 92 | 1014.2 |
| 20260505170045 | 10 | 128 | 3.2 | 9.7 | 0.00 | 0.91 | 0.91 | 93 | 1014.2 |
| 20260505164554 | 10 | 132 | 3.2 | 9.7 | 0.00 | 0.91 | 0.91 | 94 | 1014.0 |
| 20260505163048 | 10 | 180 | 4.8 | 11.3 | 0.00 | 0.91 | 0.91 | 94 | 1013.8 |
| 20260505161555 | 10 | 145 | 4.8 | 12.9 | 0.00 | 0.91 | 0.91 | 95 | 1013.7 |
| 20260505153054 | 9 | 130 | 4.8 | 16.1 | 0.00 | 0.91 | 0.91 | 99 | 1013.2 |
| 20260505151541 | 9 | 109 | 4.8 | 11.3 | 0.00 | 0.91 | 0.91 | 99 | 1013.3 |
| 20260505124606 | 8 | 138 | 4.8 | 16.1 | 0.30 | 0.76 | 0.76 | 99 | 1012.0 |
| 20260505123058 | 8 | 115 | 9.7 | 19.3 | 0.23 | 0.69 | 0.69 | 98 | 1011.9 |
| 20260505121549 | 9 | 100 | 3.2 | 8.0 | 0.13 | 0.58 | 0.58 | 98 | 1011.7 |
| 20260505120100 | 9 | 76 | 0.0 | 3.2 | 0.00 | 0.46 | 0.46 | 98 | 1011.2 |
| 20260505114545 | 9 | 0 | 0.0 | 3.2 | 0.03 | 0.46 | 0.46 | 97 | 1011.0 |
| 20260505113054 | 8 | 197 | 3.2 | 9.7 | 0.03 | 0.46 | 0.46 | 97 | 1010.8 |
| 20260505111549 | 9 | 180 | 0.0 | 3.2 | 0.05 | 0.46 | 0.46 | 97 | 1011.1 |
| 20260505101549 | 8 | 230 | 4.8 | 9.7 | 0.10 | 0.41 | 0.41 | 96 | 1011.0 |
| 20260505100050 | 8 | 232 | 8.0 | 20.9 | 0.15 | 0.41 | 0.41 | 96 | 1010.9 |
| 20260505094549 | 8 | 235 | 6.4 | 16.1 | 0.13 | 0.38 | 0.38 | 96 | 1011.0 |
| 20260505093103 | 8 | 245 | 9.7 | 19.3 | 0.10 | 0.33 | 0.33 | 96 | 1011.3 |
| 20260505091550 | 8 | 242 | 9.7 | 17.7 | 0.13 | 0.30 | 0.30 | 96 | 1011.2 |
| 20260505090050 | 9 | 290 | 6.4 | 14.5 | 0.15 | 0.25 | 0.25 | 96 | 1011.3 |
| 20260505084554 | 9 | 211 | 4.8 | 11.3 | 0.23 | 0.25 | 0.25 | 96 | 1010.7 |
| 20260505083054 | 8 | 225 | 9.7 | 17.7 | 0.20 | 0.23 | 0.23 | 95 | 1010.7 |
| 20260505081551 | 9 | 213 | 6.4 | 12.9 | 0.18 | 0.18 | 0.18 | 94 | 1011.5 |
| 20260505080054 | 9 | 239 | 6.4 | 14.5 | 0.10 | 0.10 | 0.10 | 91 | 1011.8 |
| 20260505074551 | 10 | 257 | 1.6 | 8.0 | 0.03 | 0.03 | 0.03 | 87 | 1011.9 |
| 20260505073051 | 10 | 0 | 0.0 | 4.8 | 0.03 | 0.03 | 0.03 | 83 | 1011.9 |
| 20260505071543 | 10 | 175 | 1.6 | 14.5 | 0.00 | 0.00 | 0.00 | 80 | 1011.6 |
| 20260505070045 | 11 | 233 | 11.3 | 20.9 | 0.00 | 0.00 | 0.00 | 77 | 1010.9 |
| 20260505064554 | 11 | 255 | 8.0 | 16.1 | 0.00 | 0.00 | 0.00 | 75 | 1011.0 |
| 20260505063046 | 11 | 201 | 3.2 | 16.1 | 0.00 | 0.00 | 0.00 | 73 | 1011.1 |
| 20260505061543 | 11 | 163 | 6.4 | 17.7 | 0.00 | 0.00 | 0.00 | 72 | 1011.1 |
| 20260505060042 | 11 | 0 | 0.0 | 4.8 | 0.00 | 0.00 | 0.00 | 73 | 1011.1 |
| 20260505054543 | 11 | 191 | 8.0 | 19.3 | 0.00 | 0.00 | 0.00 | 72 | 1010.8 |
| 20260505053105 | 11 | 131 | 1.6 | 11.3 | 0.00 | 0.00 | 0.00 | 75 | 1011.1 |
| 20260505051546 | 11 | 192 | 6.4 | 20.9 | 0.00 | 0.00 | 0.00 | 72 | 1010.9 |
| 20260505041546 | 11 | 249 | 12.9 | 24.1 | 0.00 | 0.00 | 0.00 | 74 | 1010.6 |
| 20260505040050 | 11 | 239 | 12.9 | 25.7 | 0.00 | 0.00 | 0.00 | 77 | 1010.4 |